AL7BX-WX Weather Reports


time (UTC)temp
C
wind
direction
speed
KPH
gust
KPH
rain 1hr
cm
rain 24hr
cm
rain mn
cm
humidity
%
barometer
mb
20260902232703 26 186 19.3 38.6 0.00 0.00 0.00 19
20260902231803 26 184 20.9 41.8 0.00 0.00 0.00 18
20260902230903 26 185 20.9 48.3 0.00 0.00 0.00 18
20260902230003 26 192 19.3 48.3 0.00 0.00 0.00 18
20260902225403 26 198 17.7 33.8 0.00 0.00 0.00 18
20260902224713 26 187 19.3 40.2 0.00 0.00 0.00 20
20260902223603 26 190 22.5 43.5 0.00 0.00 0.00 18
20260902222703 26 192 22.5 41.8 0.00 0.00 0.00 21
20260902221803 26 197 20.9 41.8 0.00 0.00 0.00 22
20260902221113 26 204 20.9 40.2 0.00 0.00 0.00 21
20260902220003 26 185 20.9 48.3 0.00 0.00 0.00 21
20260902215403 26 188 17.7 35.4 0.00 0.00 0.00 21
20260902214503 26 184 19.3 40.2 0.00 0.00 0.00 21
20260902213603 26 182 24.1 45.1 0.00 0.00 0.00 22
20260902212703 26 193 22.5 46.7 0.00 0.00 0.00 21
20260902211803 26 183 20.9 45.1 0.00 0.00 0.00 22
20260902210903 26 193 19.3 45.1 0.00 0.00 0.00 24
20260902210003 26 184 20.9 46.7 0.00 0.00 0.00 21
20260902205403 26 176 19.3 43.5 0.00 0.00 0.00 22
20260902204503 26 179 19.3 40.2 0.00 0.00 0.00 23
20260902203814 26 183 17.7 41.8 0.00 0.00 0.00 23
20260902202703 26 179 20.9 57.9 0.00 0.00 0.00 22
20260902202013 26 180 20.9 45.1 0.00 0.00 0.00 23
20260902200903 26 185 19.3 38.6 0.00 0.00 0.00 24
20260902200003 26 183 20.9 40.2 0.00 0.00 0.00 25
20260902195403 26 177 20.9 43.5 0.00 0.00 0.00 24
20260902194503 26 168 20.9 40.2 0.00 0.00 0.00 24
20260902193603 26 171 17.7 37.0 0.00 0.00 0.00 25
20260902192703 25 166 19.3 46.7 0.00 0.00 0.00 28
20260902192012 25 174 20.9 41.8 0.00 0.00 0.00 26
20260902190903 25 182 20.9 35.4 0.00 0.00 0.00 29
20260902190003 25 171 24.1 48.3 0.00 0.00 0.00 27
20260902185403 25 179 22.5 48.3 0.00 0.00 0.00 26
20260902184503 25 189 20.9 46.7 0.00 0.00 0.00 27
20260902183603 25 179 19.3 45.1 0.00 0.00 0.00 34
20260902182703 25 186 17.7 43.5 0.00 0.00 0.00 33
20260902181803 24 179 19.3 38.6 0.00 0.00 0.00 32
20260902180903 24 176 19.3 38.6 0.00 0.00 0.00 33
20260902180005 24 184 17.7 37.0 0.00 0.00 0.00 33
20260902175403 24 187 17.7 38.6 0.00 0.00 0.00 33
20260902174503 24 177 17.7 37.0 0.00 0.00 0.00 33
20260902173603 23 172 16.1 33.8 0.00 0.00 0.00 35
20260902172703 23 176 17.7 33.8 0.00 0.00 0.00 36
20260902171803 23 160 17.7 38.6 0.00 0.00 0.00 36
20260902170903 23 162 19.3 51.5 0.00 0.00 0.00 37
20260902170004 23 149 19.3 41.8 0.00 0.00 0.00 35
20260902165403 23 146 20.9 40.2 0.00 0.00 0.00 38
20260902164503 23 155 16.1 32.2 0.00 0.00 0.00 37
20260902163603 22 153 16.1 33.8 0.00 0.00 0.00 41
20260902162914 22 153 16.1 37.0 0.00 0.00 0.00 43
20260902161803 22 148 17.7 33.8 0.00 0.00 0.00 42
20260902160903 22 152 16.1 41.8 0.00 0.00 0.00 42
20260902160004 21 141 19.3 48.3 0.00 0.00 0.00 43
20260902155613 22 141 17.7 48.3 0.00 0.00 0.00 42
20260902154503 21 145 16.1 43.5 0.00 0.00 0.00 45
20260902153603 21 141 16.1 30.6 0.00 0.00 0.00 45
20260902152703 21 152 17.7 37.0 0.00 0.00 0.00 46
20260902151803 21 156 16.1 30.6 0.00 0.00 0.00 47
20260902150903 21 151 16.1 35.4 0.00 0.00 0.00 46
20260902150003 20 147 14.5 32.2 0.00 0.00 0.00 47
20260902145403 20 149 14.5 29.0 0.00 0.00 0.00 48
20260902144503 20 158 12.9 35.4 0.00 0.00 0.00 49
20260902143603 18 177 9.7 43.5 0.00 0.00 0.00 52
20260902142705 18 203 8.0 20.9 0.00 0.00 0.00 55
20260902142013 18 225 6.4 20.9 0.00 0.00 0.00 57
20260902141114 17 219 4.8 14.5 0.00 0.00 0.00 59
20260902140003 17 192 4.8 16.1 0.00 0.00 0.00 60
20260902135613 17 222 3.2 11.3 0.00 0.00 0.00 60
20260902134503 17 209 6.4 24.1 0.00 0.00 0.00 61
20260902133603 17 202 6.4 24.1 0.00 0.00 0.00 62
20260902132703 17 203 4.8 17.7 0.00 0.00 0.00 64
20260902131803 17 206 6.4 16.1 0.00 0.00 0.00 65
20260902131113 17 191 8.0 20.9 0.00 0.00 0.00 65
20260902130003 17 184 8.0 17.7 0.00 0.00 0.00 66
20260902125403 17 186 8.0 27.4 0.00 0.00 0.00 65
20260902124503 17 181 9.7 27.4 0.00 0.00 0.00 65
20260902123603 17 181 8.0 24.1 0.00 0.00 0.00 64
20260902122703 17 190 11.3 27.4 0.00 0.00 0.00 62
20260902122014 17 184 11.3 22.5 0.00 0.00 0.00 63
20260902120903 17 183 11.3 20.9 0.00 0.00 0.00 63
20260902120003 17 179 11.3 20.9 0.00 0.00 0.00 64
20260902115403 17 173 9.7 19.3 0.00 0.00 0.00 64
20260902114503 17 178 9.7 20.9 0.00 0.00 0.00 64
20260902113603 17 180 11.3 20.9 0.00 0.00 0.00 64
20260902112703 17 184 11.3 22.5 0.00 0.00 0.00 64
20260902111803 17 182 9.7 20.9 0.00 0.00 0.00 65
20260902110903 17 189 9.7 17.7 0.00 0.00 0.00 64
20260902110005 17 185 8.0 17.7 0.00 0.00 0.00 64
20260902105403 17 184 9.7 19.3 0.00 0.00 0.00 64
20260902104503 17 189 9.7 20.9 0.00 0.00 0.00 63
20260902103603 17 174 6.4 20.9 0.00 0.00 0.00 62
20260902102913 17 173 8.0 19.3 0.00 0.00 0.00 62
20260902101803 17 179 11.3 22.5 0.00 0.00 0.00 61
20260902100903 18 183 11.3 22.5 0.00 0.00 0.00 60
20260902100003 18 181 11.3 24.1 0.00 0.00 0.00 59
20260902095613 18 180 12.9 25.7 0.00 0.00 0.00 58
20260902094503 18 181 11.3 25.7 0.00 0.00 0.00 58
20260902093603 18 183 9.7 19.3 0.00 0.00 0.00 58
20260902092703 18 185 9.7 22.5 0.00 0.00 0.00 57
20260902091803 18 179 8.0 17.7 0.00 0.00 0.00 57
20260902090903 18 181 9.7 25.7 0.00 0.00 0.00 56
20260902090213 18 177 9.7 25.7 0.00 0.00 0.00 56
20260902085403 18 184 11.3 22.5 0.00 0.00 0.00 57
20260902084503 18 187 11.3 24.1 0.00 0.00 0.00 57
20260902083603 18 186 11.3 24.1 0.00 0.00 0.00 56
20260902082703 18 185 12.9 24.1 0.00 0.00 0.00 55
20260902082014 18 181 11.3 20.9 0.00 0.00 0.00 56
20260902080903 18 186 9.7 22.5 0.00 0.00 0.00 55
20260902080003 18 180 9.7 20.9 0.00 0.00 0.00 55
20260902075403 18 174 8.0 19.3 0.00 0.00 0.00 55
20260902074503 18 182 9.7 22.5 0.00 0.00 0.00 53
20260902073813 18 182 11.3 22.5 0.00 0.00 0.00 52
20260902072703 18 187 12.9 27.4 0.00 0.00 0.00 52
20260902071803 18 180 9.7 24.1 0.00 0.00 0.00 51
20260902070903 18 174 8.0 19.3 0.00 0.00 0.00 50
20260902070004 18 170 6.4 16.1 0.00 0.00 0.00 49
20260902065614 18 157 4.8 16.1 0.00 0.00 0.00 49
20260902064503 19 194 6.4 16.1 0.00 0.00 0.00 48
20260902063603 19 171 6.4 20.9 0.00 0.03 0.00 48
20260902062703 20 176 4.8 11.3 0.00 0.03 0.00 47
20260902061803 20 169 6.4 17.7 0.00 0.03 0.00 46
20260902060903 20 158 4.8 12.9 0.00 0.03 0.00 46
20260902060008 20 152 6.4 11.3 0.00 0.03 0.00 46
20260902055403 19 161 3.2 11.3 0.00 0.03 0.03 47
20260902054503 19 140 1.6 9.7 0.00 0.03 0.03 47
20260902053603 19 174 1.6 6.4 0.00 0.03 0.03 47
20260902052914 19 192 1.6 6.4 0.00 0.03 0.03 46
20260902051803 20 165 3.2 9.7 0.00 0.03 0.03 46
20260902050903 19 170 1.6 6.4 0.00 0.03 0.03 46
20260902050006 19 144 1.6 6.4 0.00 0.03 0.03 46
20260902045613 20 175 0.0 3.2 0.00 0.03 0.03 46
20260902044503 20 164 1.6 11.3 0.00 0.03 0.03 44
20260902043603 20 151 3.2 9.7 0.00 0.03 0.03 44
20260902042703 20 179 1.6 8.0 0.00 0.03 0.03 44
20260902041803 21 166 3.2 11.3 0.00 0.03 0.03 43
20260902041114 21 153 4.8 14.5 0.00 0.03 0.03 41
20260902040003 21 151 6.4 29.0 0.00 0.03 0.03 41
20260902035403 21 148 6.4 17.7 0.00 0.03 0.03 40
20260902034503 21 143 6.4 19.3 0.00 0.03 0.03 41
20260902033603 21 149 6.4 17.7 0.00 0.03 0.03 42
20260902032703 20 171 3.2 19.3 0.00 0.03 0.03 43
20260902031803 20 198 1.6 11.3 0.00 0.03 0.03 44
20260902030903 20 203 3.2 9.7 0.00 0.03 0.03 43
20260902030003 20 216 1.6 6.4 0.00 0.03 0.03 42
20260902025612 20 216 1.6 9.7 0.00 0.03 0.03 41
20260902024714 21 197 4.8 9.7 0.00 0.03 0.03 40
20260902023603 21 195 4.8 14.5 0.00 0.03 0.03 39
20260902022703 22 179 8.0 16.1 0.00 0.03 0.03 38
20260902021803 22 186 8.0 19.3 0.00 0.05 0.03 38
20260902020903 22 190 8.0 20.9 0.00 0.05 0.03 37
20260902020003 22 189 8.0 17.7 0.00 0.05 0.03 36
20260902015403 22 193 9.7 19.3 0.00 0.08 0.03 36
20260902014503 23 194 12.9 27.4 0.00 0.10 0.03 35
20260902013603 23 192 12.9 25.7 0.00 0.13 0.03 34
20260902012703 23 182 12.9 25.7 0.00 0.13 0.03 34
20260902011803 24 185 16.1 37.0 0.00 0.13 0.03 32
20260902010903 24 188 16.1 38.6 0.00 0.13 0.03 31
20260902010003 25 180 17.7 41.8 0.00 0.13 0.03 30
20260902005403 25 181 17.7 38.6 0.00 0.13 0.03 31
20260902004503 25 181 19.3 41.8 0.00 0.13 0.03 31
20260902003603 25 185 20.9 41.8 0.00 0.13 0.03 31
20260902002703 25 181 19.3 35.4 0.00 0.13 0.03 33
20260902001803 25 181 19.3 40.2 0.00 0.13 0.03 33
20260902000904 26 177 17.7 35.4 0.00 0.13 0.03 34
20260902000003 26 173 17.7 32.2 0.00 0.13 0.03 33
20260901235403 26 180 22.5 45.1 0.00 0.13 0.03 35
20260901234503 26 183 22.5 51.5 0.00 0.13 0.03 35
20260901233603 26 183 24.1 48.3 0.00 0.13 0.03 35